Other Public Products
Issued by NWS Grand Forks, ND

Home | Current Version | Previous Version | Graphics & Text | Print | Product List | Glossary On
Versions: 1 2 3 4 5 6 7 8 9 10 11 12 13 14 15 16 17 18 19 20 21 22 23 24 25 26 27 28 29 30 31 32 33 34 35 36 37 38 39 40 41 42 43 44 45 46 47 48 49 50
000
FPUS83 KFGF 220810
OPUFGF
PRAIRIE TO PINES WEATHER ROUNDUP
NATIONAL WEATHER SERVICE EASTERN NORTH DAKOTA/GRAND FORKS ND
300 AM CDT THU JUN 22 2017

 **SATELLITE DATA USED TO AUGMENT SKY COVER AT AUTOMATED STATIONS**
 *****  WEATHER ACROSS EASTERN NORTH DAKOTA  *****

CITY           SKY/WX    TMP DP  RH WIND       PRES   REMARKS
GRAND FORKS    FAIR      52  46  80 NW9       29.66F
GRAND FORKS AF FAIR      54  42  65 NW7       29.68F
GRAND CITY NWS NOT AVBL
BUXTON         NOT AVBL
DEVILS LAKE    FAIR      55  48  77 W7        29.71F
FARGO          FAIR      56  47  71 W6        29.70R
WAHPETON ARPT  FAIR      63  46  55 N9        29.69S
$$

 *****  WEATHER ACROSS CENTRAL AND WESTERN NORTH DAKOTA  *****

CITY           SKY/WX    TMP DP  RH WIND       PRES   REMARKS
JAMESTOWN      FAIR      55  49  80 CALM      29.70F
BISMARCK       FAIR      56  46  69 CALM      29.76R
MINOT          CLOUDY    61  45  55 W22G28    29.77R
MINOT AFB      LGT RAIN  57  48  72 W14       29.73F
GARRISON         N/A     56  42  59 N14       29.77R
WILLISTON      LGT RAIN  57  49  74 W14G26    29.82F
DICKINSON      CLOUDY    57  37  47 N9        29.80R
HETTINGER      FAIR      50  40  68 CALM      29.81R
$$

 *****  OTHER OBSERVATIONS NORTHEAST NORTH DAKOTA  *****

CITY           SKY/WX    TMP DP  RH WIND       PRES   REMARKS
WALHALLA       NOT AVBL
LANGDON        FAIR      48  46  93 SW9       29.69F
CAVALIER       FAIR      55  45  67 W7        29.66F
GRAFTON        FAIR      57  48  72 NW8       29.68F
CANDO          NOT AVBL
FORT TOTTEN      N/A     52  46  80 CALM      29.95S
ROLLA            N/A     50  46  87 W8        29.72R
RUGBY          NOT AVBL
 ***** THE ABOVE OBSERVATIONS ARE NON NWS ARE NOT QUALITY
        CONTROLLED AND MAY MIS-REPORT RAIN FOR SNOW...
$$

 *****  OTHER OBSERVATIONS SOUTHEAST NORTH DAKOTA *****

CITY           SKY/WX    TMP DP  RH WIND       PRES   REMARKS
COOPERSTOWN    FAIR      57  46  67 S8        29.72S
VALLEY CITY    FAIR      55  46  71 NW6       29.74S
OAKES          NOT AVBL
GWINNER        SUNNY     57  54  88 CALM      29.71F
SHEYENNE NWR     N/A     57  48  71 N2        29.95S
BUFFALO        NOT AVBL
WYNDMERE       NOT AVBL
 ***** THE ABOVE OBSERVATIONS ARE NON NWS ARE NOT QUALITY
       CONTROLLED AND MAY MIS-REPORT RAIN FOR SNOW...
$$

  *****  WEATHER ACROSS NORTHERN MINNESOTA  *****

CITY           SKY/WX    TMP DP  RH WIND       PRES   REMARKS
FLAG ISLAND    FAIR      57  54  88 W13       29.60R
WARROAD        FAIR      57  54  88 W8        29.64S
ROSEAU         FAIR      57  52  82 CALM      29.65S
HALLOCK        FAIR      50  46  87 W8        29.66S
THF RVR FALLS  FAIR      55  49  80 W7        29.69R
HALSTAD        NOT AVBL
FOSSTON        FAIR      48  46  93 CALM      29.70S
BAUDETTE       FAIR      57  54  89 W6        29.62R
WASKISH        FAIR      63  57  82 W9G16     29.65S
CROOKSTON      FAIR      54  48  82 NW3       29.68F
$$
  *****  WEATHER ACROSS CENTRAL AND WEST MINNESOTA  *****

CITY           SKY/WX    TMP DP  RH WIND       PRES   REMARKS
BEMIDJI        FAIR      53  52  97 W5        29.67F
PARK RAPIDS    FAIR      57  50  77 NW5       29.69S
WADENA         FAIR      61  55  82 CALM      29.70S
DETROIT LAKES  FAIR      59  54  82 CALM      29.72R
MOORHEAD       FAIR      61  46  59 CALM      29.71S
FERGUS FALLS   FAIR      63  52  67 NE5       29.68R
ELBOW LAKE     FAIR      65  56  71 E3        29.69S
MORRIS MN      FAIR      70  63  78 CALM      29.69S
STAPLES        FAIR      63  61  94 CALM      29.70S
WHEATON        FAIR      64  55  72 CALM      29.71S
$$
  *****  WEATHER ELSEWHERE ACROSS MINNESOTA  *****

CITY           SKY/WX    TMP DP  RH WIND       PRES   REMARKS
DULUTH         MOCLDY    52  50  93 S7        29.67F
INTRNTL FALLS  FAIR      58  55  90 W7        29.61R
ELY            CLOUDY    57  55  94 SW5       29.64S
CLOQUET        MOCLDY    54  50  87 SE5       29.68S
BRAINERD       FAIR      66  64  93 W6        29.68F
HIBBING        FAIR      50  50 100 NW5       29.66F FOG
ALEXANDRIA     FAIR      68  63  84 N3        29.70F
SAINT CLOUD    MOCLDY    65  65 100 CALM      29.66F
MINNEAPOLIS    MOCLDY    70  62  76 E7        29.65F
$$

  *****  WEATHER ACROSS SOUTH DAKOTA  *****

CITY           SKY/WX    TMP DP  RH WIND       PRES   REMARKS
SIOUX FALLS    FAIR      72  71  97 E3        29.63F
BROOKINGS      CLOUDY    71  56  58 NE13G20   29.68S
WATERTOWN      MOCLDY    67  47  48 NE15G25   29.69F THUNDER
HURON          CLOUDY    72  50  45 NE20      29.70R
SISSETON         N/A     65  55  70 CALM      29.69S
ABERDEEN       FAIR      65  53  65 NE10      29.70F
MITCHELL       FAIR      71  67  87 N13       29.65R
PIERRE         FAIR      69  46  43 N24       29.72R THUNDER
MOBRIDGE       MOCLDY    61  54  77 SE10      29.72F
RAPID CITY     FAIR      59  49  69 N5        29.81R
$$

  *****  SOME WEATHER IN NEARBY STATES *****

CITY           SKY/WX    TMP DP  RH WIND       PRES   REMARKS
GLASGOW MT     FAIR      53  46  77 W8        29.88R
GREAT FALLS MT FAIR      49  29  46 CALM      30.02R
CHEYENNE WY    FAIR      71  37  28 W13       29.95F
SCOTTSBLUFF NE FAIR      66  51  58 E6        29.73F
OMAHA NE       MOCLDY    81  61  50 S16       29.70F
DES MOINES IA  FAIR      77  64  64 S15       29.74F
DAVENPORT IA   FAIR      77  66  68 S15G24    29.81F
CHICAGO IL     MOCLDY    73  63  70 S10       29.83F
EAU CLAIRE WI  FAIR      67  59  75 S6        29.68F
LA CROSSE WI   CLOUDY    71  68  90 N14       29.71R
$$

  *****  SOME NATIONAL WEATHER *****

CITY           SKY/WX    TMP DP  RH WIND       PRES   REMARKS
LA GUARDIA NY  FAIR      71  58  63 N6        29.96R
RALEIGH NC     MOCLDY    71  70  96 SW7       30.08S
ATLANTA GA     LGT RAIN  72  71  97 E6        30.07F
NEW ORLEANS LA CLOUDY    80  76  87 SE17G25   29.73F
OKLAHOMA CITY  MOCLDY    64  60  87 S6        29.82F
ALBUQUERQUE NM MOCLDY    82  46  28 E20G31    29.99R
SALT LAKE CITY FAIR      76  45  33 N7        29.93R
LOS ANGELES CA FAIR      65  62  90 S6        29.74S
BOISE ID       FAIR      65  33  30 W13       30.02R
SEATTLE WA     FAIR      57  46  66 NE8       30.30S
$$

*** WEATHER ACROSS MANITOBA...SASKATCHEWAN AND ONTARIO ***
                ***ONTARIO***

CITY           SKY/WX    TMP DP  RH WIND       PRES   REMARKS
GERALDTON      LGT RAIN  55  45  67 SE5       29.68F
THUNDER BAY    CLOUDY    50  46  87 E7        29.65F
SIOUX LOOKOUT  MOCLDY    55  54  94 S5        29.57F
TORONTO        CLEAR     57  52  82 W3        29.97S
BIG TROUT LK   PTCLDY    55  50  82 S3        29.59S
PICKLE LAKE    NOT AVBL
DRYDEN         CLOUDY    55  55 100 S5        29.58S
KENORA         PTCLDY    55  55 100 W7        29.59R
$$
                *** MANITOBA***

CITY           SKY/WX    TMP DP  RH WIND       PRES   REMARKS
BRANDON        PTCLDY    54  43  66 W14       29.64S
DAUPHIN        CLEAR     54  43  66 SW10      29.55F
ISLAND LAKE    MOCLDY    55  55 100 S7        29.47F
PILOT MOUND      N/A     48  43  81 SW5         N/A
THE PAS        CLOUDY    50  48  93 E2        29.34F
THOMPSON       LGT RAIN  57  52  82 E5        29.41F
WINNIPEG       PTCLDY    52  48  87 W9        29.61R
LYNN LAKE      PTCLDY    52  48  87 NE5       29.45S
CHURCHILL      PTCLDY    55  45  67 S10       29.48S
GILLAM         PTCLDY    54  50  87 SW6       29.48F
$$
                ***SASKATCHEWAN***

CITY           SKY/WX    TMP DP  RH WIND       PRES   REMARKS
ESTEVAN        MOCLDY    52  46  82 SW10      29.75S
KINDERSLEY     PTCLDY    48  37  66 W13G20    29.80F
LLOYDMINSTER   LGT RAIN  46  45  93 W22G35    29.72F
PRINCE ALBERT  LGT RAIN  48  46  93 W17G24    29.53S
REGINA         PTCLDY    54  39  58 W16       29.72S
YORKTON        CLEAR     54  39  58 SW13      29.58F



USA.gov is the U.S. government's official web portal to all federal, state and local government web resources and services.